Regional Weather Roundup
Issued by NWS Sterling, VA

Current Version | Previous Version | Text Only | Print | Product List | Glossary On
Versions: 1 2 3 4 5 6 7 8 9 10 11 12 13 14 15 16 17 18 19 20 21 22 23 24 25 26 27 28 29 30 31 32 33 34 35 36 37 38 39 40 41 42 43 44 45 46 47 48 49 50
000
ASUS41 KLWX 051410
RWRLWX

REGIONAL WEATHER ROUNDUP
NATIONAL WEATHER SERVICE BALTIMORE MD/WASHINGTON DC
900 AM EST THU MAR 05 2015

Note: "FAIR" indicates few or no clouds below 12,000 feet
with no significant weather and/or obstructions to visibility.
 TC=TEMPERATURE CELSIUS

 * =Non NWS site. Station does not report precipitation (e.g. rain,
    snow, etc.), thunder, or fog.

DCZ001-MDZ009-015-VAZ040>042-051-053>054-051500-
WASHINGTON METRO

CITY           SKY/WX    TMP DP  RH WIND       PRES   REMARKS
WASHINGTON NAT LGT SNOW  35  30  82 N14       30.12S VSB 3/4 WCI  26
DULLES         LGT SNOW  30  27  86 N17G25    30.13R VSB 1   WCI  18
ANDREWS AFB    MIX PCPN  32  31  96 N16G22    30.09S FOG     WCI  21
FT BELVOIR     LGT SNOW  32  32 100 NW10G16   30.12R FOG     WCI  24
QUANTICO       LGT RAIN  34  29  82 N15G30    30.14R WCI  24
COLLEGE PARK*  CLOUDY    32  32 100 N7        30.13R
LEESBURG*      LGT SNOW  32  32 100 N13G22    30.15R VSB 3/4 WCI  22
MANASSAS*      CLOUDY    32  32 100 N13       30.12R VSB 1   WCI  22
GAITHERSBURG*  CLOUDY    30  27  86 NW8       30.15R VSB 3/4 WCI  23

$$

MDZ006>007-011-014-051500-
BALTIMORE METRO

CITY           SKY/WX    TMP DP  RH WIND       PRES   REMARKS
BWI AIRPORT    LGT SNOW  31  30  96 N7        30.10F VSB 3/4
MD SCIENCE CTR   N/A     32  30  92 MISG      30.12R
MARTIN STATE   LGT SNOW  34  32  93 NW6       30.15R VSB 3/4
ANNAPOLIS      LGT SNOW  32  29  88 N13       30.12F FOG     WCI  22
FORT MEADE*    CLOUDY    32  30  93 CALM      30.15S VSB 3/4

$$

MDZ012-015-019>023-051500-
MARYLAND EASTERN SHORE

CITY           SKY/WX    TMP DP  RH WIND       PRES   REMARKS
OCEAN CITY     MIX PCPN  36  35  96 N14       30.07R FOG     WCI  27
SALISBURY      LGT RAIN  38  34  85 N13       30.08R FOG
BAY BRIDGE AP* LGT SNOW  32  32 100 N12G17    30.11F WCI  23
CAMBRIDGE*     CLOUDY    36  34  93 N12       30.10S WCI  27
EASTON*        LGTSLEET  36  36 100 N10G16    30.14R FOG     WCI  28

$$

MDZ017>025-051500-
SOUTHERN MARYLAND

CITY           SKY/WX    TMP DP  RH WIND       PRES   REMARKS
PATUXENT RIVER DRIZZLE   34  31  88 N15G23    30.10R FOG     WCI  24
ST INIGOES     LGT RAIN  35  30  82 N10G21    30.09R WCI  27
LEONARDTOWN*   CLOUDY    32  32 100 N7        30.11S

$$

MDZ003>005-051500-
NORTH CENTRAL MARYLAND

CITY           SKY/WX    TMP DP  RH WIND       PRES   REMARKS
FREDERICK*     NOT AVBL
HAGERSTOWN APT SNOW      27  23  85 N13       30.14R VSB 1/2 WCI  16
WESTMINSTER*   SNOW      28  27  93 NW7       30.11R VSB 1/2

$$

MDZ501>502-051500-
WESTERN MARYLAND

CITY           SKY/WX    TMP DP  RH WIND       PRES   REMARKS
OAKLAND*       FOG       16 N/A N/A NW6       30.02S VSB 1/2
CUMBERLAND*    CLOUDY    27  23  86 N8        30.19F WCI  18

$$

VAZ025>031-051500-
SHENANDOAH VALLEY

CITY           SKY/WX    TMP DP  RH WIND       PRES   REMARKS
WINCHESTER*    SNOW      30  27  86 NW6       30.13R VSB 1/4
FRONT ROYAL*   CLOUDY    30  28  93 N6        30.11R VSB 1/2
LURAY*         LGT SNOW  32  32 100 NE12      30.08S WCI  23
NEW MARKET*    CLOUDY    29  27  91 N7        30.09R VSB 1
STAUNTON*      MIX PCPN  32  30  93 N10       30.08R WCI  24
WAYNESBORO*    CLOUDY    31  30  95 N10       30.04R WCI  23

$$

WVZ021-048>050-054>055-051500-
EASTERN WEST VIRGINIA PANHANDLE

CITY           SKY/WX    TMP DP  RH WIND       PRES   REMARKS
MARTINSBURG    SNOW      28  24  85 NW14G20   30.16R VSB 1/4 WCI  17
PETERSBURG*    NOT AVBL

$$

VAZ036>039-050-051500-
CENTRAL FOOTHILLS

CITY           SKY/WX    TMP DP  RH WIND       PRES   REMARKS
CHARLOTTESVILL LGT RAIN  35  33  92 E8        30.04S FOG     WCI  29
CULPEPER*      LGT SNOW  34  32  93 N12       30.12R WCI  25
ORANGE*        MIX PCPN  34  32  93 N15G23    30.09R WCI  24
GORDONSVILLE*  CLOUDY    33  31  96 NE13      30.06R FOG     WCI  23
WARRENTON*     LGT SNOW  33  33 100 N14       30.11R WCI  23

$$

VAZ055>057-051500-
NORTH AND CENTRAL PIEDMONT

CITY           SKY/WX    TMP DP  RH WIND       PRES   REMARKS
FREDERICKSBRG* RAIN      35  35 100 N9        30.11R WCI  28
STAFFORD*      LGT SNOW  33  32  98 N9        30.15R WCI  25

$$

NCZ024-NYZ072-PAZ021-071-VAZ022-071-051500-
OTHER REGIONAL OBSERVATIONS

CITY           SKY/WX    TMP DP  RH WIND       PRES   REMARKS
NEW YORK CITY  SNOW      28  26  92 NE12G17   30.13R VSB 1/4 WCI  18
PHILADELPHIA   SNOW      32  30  92 N7        30.12S VSB 1/2
PITTSBURGH     CLOUDY    15   7  70 N10       30.22S WCI   2
ROANOKE        RAIN      38  36  92 N5        30.00F FOG
RICHMOND       RAIN      37  34  89 N10       30.07R FOG
RALEIGH        LGT RAIN  64  58  80 SW5       29.89F

$$

ANZ530>537-051500-
MARINE OBSERVATIONS

STATION/POSITION TIME  TEMP    WIND        PRES
                       AIR SEA DIR/SP/G
                 (UTC) (F)     (DEG/KT/KT) (MB)
THOMAS PT LIGHT  1400   32 32  360/ 17/ 18 1020.3F
BALT KEY BRIDGE  1300   32     310/ 10/ 11 1019.7R
COVE POINT       1300   32      30/ 12/ 14 1018.5R
LEWISETTA        1300   35 34   30/  6/ 15 1018.5R
SOLOMONS ISLAND  1300      33                N/A

$$



USA.gov is the U.S. government's official web portal to all federal, state and local government web resources and services.